Content
SEND FEEDBACK

Daily
Averages
Monthly
Summary
United States of America

TAOS, NEW MEXICO


Home > North America > United States > New Mexico
Elevation: 8998 feet     Latitude: 36 23N     Longitude: 105 25W

WEATHER
 
SELECT A DAY
Number of Records: 173,759;   Date Range: 10/2/07 - 10/1/14
 
SHARE

PRINT THIS DATA

[ ← Previous Day ]
WEATHER ALMANAC - FEBRUARY 13, 2013
[ Next Day → ]
[ °C ]   °F
Weather ElementAverageHighLow
Temperature15.9 °F34.5 °F (3:55 pm)-9.2 °F (6:35 am)
Dewpoint4.1 °F14.5 °F (2:35 pm)-13.5 °F (6:35 am)
Humidity62.7 %85 % (6:55 am)41 % (3:55 pm)
Barometer30.05 in30.09 in (11:35 pm)29.98 in (3:15 pm)
Wind Speed4.7 mph16.1 mph (5:15 pm)
Wind Gust21.9 mph (5:15 pm)
Weather ElementAverage
Visibility10 mi
Wind DirectionSE (140.3 °)

Weather ElementTotal
Precipitation---
Heating Degree Days52.4 (Base 65)
Averaged from 70 records on February 13, 2013
WEATHER CONDITIONS BREAKOUT
WIND DIRECTION BREAKOUT
WEATHER BY HOUR - FEBRUARY 13, 2013
[ °C ]   °F
Local TimeTemperatureDewpointHumidityBarometerVisibilityWind DirectionWind SpeedGust SpeedPrecipitationEventsConditions
12:35 AM-2.7 °F-7.8 °F79 %30.07 in10.0 miCalmClear
12:55 AM-2.4 °F-7.1 °F80 %30.06 in10.0 miCalmClear
1:15 AM-2.6 °F-7.4 °F80 %30.06 in10.0 miCalmClear
1:35 AM-0.4 °F-5.3 °F80 %30.07 in10.0 miCalmClear
1:55 AM-1.7 °F-5.4 °F84 %30.06 in10.0 miNE (40°)3.5 mphClear
2:15 AM-1.3 °F-5.3 °F83 %30.06 in10.0 miCalmClear
2:35 AM-4.2 °F-8.0 °F84 %30.06 in10.0 miCalmClear
2:55 AM-3.1 °F-7.2 °F82 %30.06 in10.0 miENE (60°)3.5 mphClear
3:15 AM-0.9 °F-4.9 °F83 %30.05 in10.0 miNNE (20°)4.6 mphClear
3:35 AM0.0 °F-4.0 °F83 %30.05 in10.0 miNE (40°)9.2 mphClear
3:55 AM-0.8 °F-5.1 °F82 %30.05 in10.0 miNE (40°)5.8 mphClear
4:15 AM-1.5 °F-5.6 °F83 %30.05 in10.0 miNE (50°)4.6 mphClear
4:35 AM-5.1 °F-9.2 °F82 %30.05 in10.0 miNNW (330°)3.5 mphClear
5:15 AM-5.8 °F-9.4 °F84 %30.06 in10.0 miCalmClear
5:35 AM-4.5 °F-8.3 °F84 %30.06 in10.0 miCalmClear
5:55 AM-8.1 °F-12.3 °F82 %30.05 in10.0 miCalmClear
6:15 AM-6.9 °F-10.5 °F84 %30.06 in10.0 miCalmClear
6:35 AM-9.2 °F-13.5 °F81 %30.06 in10.0 miNNE (30°)3.5 mphClear
6:55 AM-6.5 °F-9.9 °F85 %30.05 in10.0 miCalmClear
7:15 AM-8.5 °F-12.8 °F81 %30.06 in10.0 miCalmClear
7:35 AM-6.2 °F-9.8 °F84 %30.06 in10.0 miCalmClear
7:55 AM-5.8 °F-9.9 °F82 %30.07 in10.0 miCalmClear
8:15 AM-2.0 °F-6.3 °F82 %30.07 in10.0 miSSW (210°)5.8 mphClear
8:35 AM2.1 °F-2.4 °F81 %30.07 in10.0 miSE (140°)3.5 mphClear
8:55 AM3.9 °F-2.2 °F76 %30.07 in10.0 miCalmClear
9:15 AM8.6 °F2.1 °F75 %30.07 in10.0 miCalmClear
9:35 AM11.8 °F3.4 °F69 %30.07 in10.0 miCalmClear
9:55 AM20.3 °F8.1 °F59 %30.07 in10.0 miSE (140°)3.5 mphClear
10:15 AM23.5 °F8.8 °F53 %30.07 in10.0 miEast (100°)3.5 mphClear
10:35 AM25.9 °F9.3 °F50 %30.06 in10.0 miEast (100°)5.8 mphClear
10:55 AM27.1 °F8.1 °F45 %30.05 in10.0 miSE (130°)3.5 mphClear
11:15 AM28.0 °F10.0 °F47 %30.06 in10.0 miSE (130°)4.6 mphClear
11:35 AM29.7 °F10.4 °F45 %30.05 in10.0 miSE (130°)4.6 mphClear
11:55 AM30.0 °F10.2 °F44 %30.04 in10.0 miSSE (150°)3.5 mphClear
12:15 PM30.6 °F11.8 °F46 %30.04 in10.0 miSW (230°)11.5 mphClear
12:35 PM31.1 °F11.3 °F44 %30.03 in10.0 miSW (220°)8.1 mphClear
12:55 PM31.6 °F11.1 °F43 %30.01 in10.0 miSW (230°)5.8 mphClear
1:15 PM32.0 °F12.0 °F44 %30.01 in10.0 miSW (220°)8.1 mphClear
1:35 PM32.0 °F12.9 °F45 %30.00 in10.0 miWSW (250°)9.2 mphClear
1:55 PM32.4 °F13.3 °F45 %30.00 in10.0 miWest (270°)10.4 mphClear
2:15 PM32.9 °F14.2 °F46 %30.00 in10.0 miWest (260°)10.4 mphClear
2:35 PM33.6 °F14.5 °F46 %29.99 in10.0 miWest (270°)11.5 mphClear
2:55 PM34.0 °F13.8 °F44 %29.99 in10.0 miWest (260°)11.5 mphClear
3:15 PM33.8 °F14.5 °F45 %29.98 in10.0 miWSW (250°)11.5 mph16.1 mphClear
3:35 PM34.2 °F14.4 °F44 %29.99 in10.0 miSW (230°)8.1 mph17.3 mphClear
3:55 PM34.5 °F13.1 °F41 %29.99 in10.0 miWSW (240°)5.8 mph16.1 mphClear
4:15 PM34.0 °F12.6 °F41 %29.99 in10.0 miWSW (240°)10.4 mphClear
4:35 PM32.9 °F12.6 °F43 %30.00 in10.0 miWest (260°)10.4 mph16.1 mphClear
4:55 PM32.0 °F11.7 °F43 %30.00 in10.0 miWest (270°)10.4 mphClear
5:15 PM32.0 °F11.5 °F43 %30.01 in10.0 miSW (230°)16.1 mph21.9 mphClear
5:35 PM30.7 °F11.3 °F44 %30.02 in10.0 miWSW (250°)4.6 mphClear
5:55 PM29.3 °F11.7 °F48 %30.03 in10.0 miSSW (210°)4.6 mphClear
6:15 PM29.7 °F11.1 °F46 %30.04 in10.0 miSW (220°)5.8 mphClear
6:35 PM29.1 °F11.1 °F47 %30.05 in10.0 miSE (140°)4.6 mphClear
6:55 PM27.7 °F10.8 °F49 %30.05 in10.0 miSouth (170°)10.4 mphClear
7:15 PM28.2 °F10.4 °F47 %30.06 in10.0 miSouth (170°)6.9 mphClear
7:35 PM27.7 °F10.6 °F49 %30.06 in10.0 miWest (280°)4.6 mphClear
7:55 PM27.7 °F10.6 °F49 %30.05 in10.0 miCalmClear
8:15 PM27.1 °F10.6 °F50 %30.05 in10.0 miSouth (180°)3.5 mphClear
8:35 PM27.1 °F10.8 °F50 %30.05 in10.0 miSW (230°)4.6 mphClear
8:55 PM25.2 °F10.2 °F53 %30.05 in10.0 miWest (260°)9.2 mphClear
9:15 PM24.1 °F10.8 °F57 %30.05 in10.0 miWSW (250°)5.8 mphClear
9:35 PM21.2 °F10.8 °F64 %30.05 in10.0 miNNW (330°)5.8 mphClear
9:55 PM20.8 °F10.2 °F64 %30.06 in10.0 miNW (320°)3.5 mphClear
10:15 PM19.2 °F9.1 °F65 %30.07 in10.0 miNNW (340°)4.6 mphClear
10:35 PM19.9 °F10.6 °F67 %30.07 in10.0 miNNW (340°)6.9 mphClear
10:55 PM15.4 °F7.0 °F69 %30.08 in10.0 miNorth (360°)5.8 mphClear
11:15 PM14.4 °F8.2 °F77 %30.08 in10.0 miCalmClear
11:35 PM12.7 °F6.8 °F77 %30.09 in10.0 miCalmClear
11:55 PM10.4 °F5.0 °F79 %30.08 in10.0 miCalmClear
Hourly data recorded from KAXX, located miles away from Taos, New Mexico







STORIES FROM OUR PARTNERS